[[{"header":{"parameterUnit":"m.s-1","parameterCategory":1,"la1":30.2991,"la2":30.254,"lo1":-89.0895,"lo2":-89.0444,"dy":0.0017,"dx":0.0017,"nx":28,"ny":28,"refTime":"2025-04-19T09:00:00:Z","depth":0,"parameterNumber":2,"parameterNumberName":"U-component_of_WINDS"},"data":[0,0,0,0,0,0,0,0,0,0,0,0,0,0,0,0,0,0,0,0,0,0,0,0,0,0,0,0,0,0,0,0,0,0,0,0,0,0,0,0,0,0,0,0,0,0,0,0,0,0,0,0,0,0,0,0,0,0,-3.807,-3.8072,0,-3.8231,-3.8233,-3.8235,-3.8271,-3.827,-3.8269,-3.8268,-3.8433,-3.8439,-3.8444,0,0,0,0,0,0,0,0,0,0,0,0,0,-3.7794,-3.7799,-3.807,-3.8072,-3.8074,-3.8231,-3.8233,-3.8236,-3.8272,-3.827,-3.8269,-3.8267,-3.8432,-3.8438,-3.8445,0,0,0,0,0,0,0,0,0,0,0,0,0,-3.7931,-3.7801,-3.807,-3.8111,-3.8116,-3.8231,-3.8233,-3.8236,-3.8272,-3.827,-3.8268,-3.8267,-3.8429,-3.8437,-3.8445,-3.853,0,0,-3.847,-3.8474,0,0,0,0,0,0,0,0,-3.7923,-3.7941,-3.8103,-3.8109,-3.8115,-3.823,-3.8197,-3.8335,-3.8272,-3.8213,-3.8268,-3.8266,-3.8367,-3.838,-3.8414,-3.8538,-3.8545,-3.8471,-3.8476,-3.848,-3.8482,0,0,0,0,0,0,0,-3.7913,-3.7934,-3.8134,-3.8105,-3.8112,-3.8122,-3.8139,-3.8223,-3.8297,-3.8218,-3.8221,-3.8239,-3.837,-3.8406,-3.8418,-3.8547,-3.8471,-3.8478,-3.8483,-3.8486,-3.8749,-3.875,0,0,0,0,0,0,-3.7897,-3.7926,-3.8129,-3.8139,-3.8013,-3.8128,-3.8148,-3.8194,-3.8297,-3.8311,-3.8241,-3.8241,-3.8393,-3.8409,-3.8424,-3.8529,-3.848,-3.8487,-3.8492,-3.8747,-3.8749,-3.8751,0,0,0,0,0,0,-3.7891,-3.7914,-3.8122,-3.8033,-3.806,-3.8135,-3.8187,-3.8198,-3.8235,-3.8314,-3.8327,-3.8264,-3.8392,-3.8413,-3.8503,-3.8536,-3.8491,-3.8498,-3.8744,-3.8747,-3.875,-3.8741,0,0,0,0,0,0,-3.7882,-3.7912,-3.7945,-3.8034,-3.8065,-3.8199,-3.8189,-3.8203,-3.8249,-3.825,-3.8339,-3.8353,-3.8392,-3.8491,-3.8512,-3.8546,-3.8505,-3.8742,-3.8746,-3.8749,-3.8739,-3.8743,-3.8747,0,0,0,0,0,-3.7873,-3.7936,-3.7946,-3.7971,-3.8108,-3.82,-3.8218,-3.8263,-3.8251,-3.8285,-3.8336,-3.835,-3.8529,-3.85,-3.8523,-3.8561,-3.874,-3.8744,-3.8749,-3.8737,-3.8742,-3.8747,0,0,0,0,0,0,-3.7849,-3.7948,-3.7961,-3.8055,-3.8119,-3.8206,-3.825,-3.8267,-3.8336,-3.8334,-3.8387,-3.8407,-3.8494,-3.8537,-3.8503,-3.8648,-3.8634,-3.8644,-3.8617,-3.8623,-3.8627,-3.8614,-3.8512,0,0,0,0,0,-3.7855,-3.7922,-3.8005,-3.808,-3.8112,-3.8175,-3.8217,-3.8246,-3.8314,-3.8342,-3.8399,-3.8465,-3.8537,-3.8582,-3.8652,-3.8746,-3.8765,-3.8783,-3.8787,-3.879,-3.8798,-3.8849,-3.8858,-3.8766,-3.8766,-3.8766,0,0,-3.7867,-3.793,-3.7969,-3.8077,-3.813,-3.8198,-3.8198,-3.827,-3.8321,-3.8353,-3.8442,-3.8486,-3.8564,-3.8655,-3.8699,-3.8694,-3.8827,-3.8796,-3.8798,-3.8804,-3.8855,-3.8863,-3.8871,-3.8769,-3.8769,-3.8768,0,0,-3.7924,-3.7979,-3.8047,-3.81,-3.818,-3.8222,-3.8239,-3.8324,-3.8354,-3.8444,-3.847,-3.8531,-3.8653,-3.8707,-3.875,-3.8828,-3.8843,-3.885,-3.8872,-3.8922,-3.8929,-3.8935,-3.8962,-3.8971,-3.8857,-3.8857,-3.8857,0,-3.793,-3.8033,-3.808,-3.8151,-3.8197,-3.823,-3.8299,-3.8348,-3.8447,-3.8478,-3.8472,-3.8625,-3.8679,-3.8784,-3.8803,-3.8837,-3.8857,-3.8839,-3.8924,-3.8931,-3.8938,-3.8964,-3.8974,-3.8857,-3.8857,-3.8857,-3.8857,0,-3.8035,-3.8107,-3.8152,-3.8246,-3.8298,-3.8368,-3.8425,-3.8472,-3.8497,-3.8539,-3.8631,-3.8697,-3.8781,-3.8808,-3.8833,-3.8917,-3.8911,-3.8913,-3.89,-3.8946,-3.8971,-3.8982,-3.8857,-3.8857,-3.8857,-3.8857,0,0,-3.8081,-3.8201,-3.8216,-3.8259,-3.835,-3.8406,-3.8478,-3.8559,-3.8598,-3.8666,-3.8726,-3.8829,-3.8832,-3.8881,-3.8912,-3.8956,-3.9012,-3.8954,-3.8956,-3.8961,-3.9108,-3.9104,-3.9115,-3.9024,-3.9026,-3.9028,-3.9101,0,-3.8149,-3.8277,-3.8321,-3.8426,-3.8493,-3.8524,-3.8586,-3.8649,-3.8691,-3.8753,-3.88,-3.8871,-3.887,-3.89,-3.8945,-3.8996,-3.9042,-3.8992,-3.908,-3.9083,-3.9058,-3.9128,-3.9125,-3.919,-3.9111,-3.9113,-3.9114,0,-3.8244,-3.8313,-3.8424,-3.8507,-3.8536,-3.8591,-3.8669,-3.8729,-3.88,-3.8828,-3.8883,-3.8911,-3.8987,-3.897,-3.9074,-3.9039,-3.9078,-3.9108,-3.9112,-3.9121,-3.91,-3.9138,-3.9213,-3.9222,-3.913,-3.9129,-3.9128,0,-3.8265,-3.8385,-3.8468,-3.8504,-3.8602,-3.864,-3.8682,-3.8752,-3.8798,-3.8867,-3.8897,-3.8974,-3.9016,-3.9075,-3.9123,-3.9106,-3.9223,-3.921,-3.9247,-3.9246,-3.9269,-3.9267,-3.935,-3.9297,-3.9297,-3.9297,-3.9296,0,-3.8335,-3.8402,-3.8478,-3.8529,-3.8604,-3.8655,-3.8729,-3.8774,-3.8836,-3.8895,-3.8928,-3.8984,-3.9044,-3.9108,-3.9146,-3.9226,-3.9246,-3.927,-3.9279,-3.9266,-3.9263,-3.9291,-3.9287,-3.9299,-3.9299,-3.9298,-3.9298,0,-3.8371,-3.8424,-3.8516,-3.8602,-3.8625,-3.8677,-3.875,-3.88,-3.8844,-3.8919,-3.894,-3.9008,-3.9084,-3.9138,-3.9237,-3.9263,-3.9349,-3.9358,-3.9324,-3.9329,-3.9362,-3.9358,-3.9466,-3.9482,-3.9418,-3.9419,-3.9419,0,-3.8411,-3.8463,-3.8554,-3.8596,-3.8639,-3.8707,-3.8754,-3.8806,-3.8853,-3.8939,-3.8979,-3.9057,-3.9122,-3.9243,-3.9302,-3.9377,-3.9388,-3.942,-3.9399,-3.9384,-3.9387,-3.9382,-3.9388,-3.9423,-3.9423,-3.9424,-3.9424,0,-3.8477,-3.8501,-3.8567,-3.8643,-3.8698,-3.8761,-3.8823,-3.8856,-3.8919,-3.8971,-3.9049,-3.91,-3.92,-3.9277,-3.9358,-3.9403,-3.9424,-3.943,-3.9443,-3.943,-3.9407,-3.9418,-3.9331,-3.9427,-3.9427,-3.9427,-3.9427,-3.9426,-3.8516,-3.8563,-3.8634,-3.8707,-3.876,-3.8818,-3.8869,-3.8918,-3.8984,-3.9069,-3.9096,-3.9177,-3.9248,-3.9358,-3.9404,-3.9468,-3.9466,-3.9484,-3.9489,-3.9492,-3.9491,-3.9398,-3.9483,-3.9483,-3.9483,-3.9483,-3.9483,0,-3.8582,-3.863,-3.8696,-3.8782,-3.884,-3.8855,-3.8925,-3.8971,-3.9042,-3.9106,-3.9169,-3.9259,-3.9334,-3.9398,-3.9476,-3.9515,-3.9526,-3.9534,-3.9531,-3.954,-3.9489,-3.947,-3.9523,-3.9523,-3.9523,-3.9523,-3.9523,-3.9523,-3.8624,-3.8704,-3.8737,-3.8844,-3.8891,-3.897,-3.9008,-3.9062,-3.9113,-3.9211,-3.9273,-3.9315,-3.9379,-3.9462,-3.9531,-3.9548,-3.9575,-3.9579,-3.9598,-3.9549,-3.9544,-3.9539,-3.9522,-3.9585,-3.9585,-3.9645,-3.9645,-3.9645]},{"header":{"parameterUnit":"m.s-1","parameterCategory":1,"la1":30.2991,"la2":30.254,"lo1":-89.0895,"lo2":-89.0444,"dy":0.0017,"dx":0.0017,"nx":28,"ny":28,"refTime":"2025-04-19T09:00:00:Z","depth":0,"parameterNumber":3,"parameterNumberName":"V-component_of_WINDS"},"data":[0,0,0,0,0,0,0,0,0,0,0,0,0,0,0,0,0,0,0,0,0,0,0,0,0,0,0,0,0,0,0,0,0,0,0,0,0,0,0,0,0,0,0,0,0,0,0,0,0,0,0,0,0,0,0,0,0,0,3.9214,3.9214,0,3.9276,3.9277,3.9277,3.9294,3.9294,3.9293,3.9293,3.9355,3.9357,3.9359,0,0,0,0,0,0,0,0,0,0,0,0,0,3.9109,3.9111,3.9213,3.9214,3.9215,3.9276,3.9277,3.9278,3.9294,3.9294,3.9293,3.9293,3.9354,3.9356,3.9359,0,0,0,0,0,0,0,0,0,0,0,0,0,3.9161,3.9112,3.9213,3.9231,3.9233,3.9276,3.9277,3.9278,3.9294,3.9293,3.9293,3.9292,3.9353,3.9356,3.9359,3.9389,0,0,3.9368,3.937,0,0,0,0,0,0,0,0,3.9159,3.9165,3.9227,3.9229,3.9232,3.9277,3.9263,3.9315,3.9294,3.9271,3.9293,3.9292,3.9329,3.9334,3.9347,3.9392,3.9394,3.9369,3.937,3.9372,3.9372,0,0,0,0,0,0,0,3.9155,3.9163,3.9238,3.9228,3.9231,3.9236,3.9242,3.9273,3.9302,3.9273,3.9274,3.9281,3.933,3.9344,3.9348,3.9395,3.9368,3.9371,3.9373,3.9374,3.9471,3.9472,0,0,0,0,0,0,3.9148,3.916,3.9236,3.924,3.9193,3.9238,3.9246,3.9263,3.9302,3.9307,3.9282,3.9282,3.9339,3.9345,3.9351,3.939,3.9372,3.9374,3.9376,3.947,3.9471,3.9472,0,0,0,0,0,0,3.9146,3.9155,3.9234,3.92,3.9211,3.924,3.926,3.9264,3.9278,3.9309,3.9314,3.929,3.9339,3.9346,3.938,3.9392,3.9376,3.9378,3.9469,3.9471,3.9472,3.9468,0,0,0,0,0,0,3.9143,3.9154,3.9165,3.92,3.9212,3.9262,3.926,3.9266,3.9283,3.9284,3.9318,3.9323,3.9339,3.9376,3.9383,3.9396,3.9381,3.9468,3.947,3.9471,3.9467,3.9469,3.947,0,0,0,0,0,3.9139,3.916,3.9165,3.9175,3.9227,3.9262,3.9269,3.9287,3.9284,3.9296,3.9317,3.9322,3.939,3.9379,3.9387,3.9402,3.9468,3.947,3.9471,3.9466,3.9468,3.947,0,0,0,0,0,0,3.9124,3.9165,3.9171,3.9204,3.923,3.9265,3.928,3.9289,3.9315,3.9314,3.9336,3.9343,3.9376,3.9392,3.9379,3.9434,3.9429,3.9433,3.9422,3.9424,3.9426,3.9421,3.9383,0,0,0,0,0,3.9125,3.915,3.9185,3.921,3.9223,3.925,3.9266,3.9278,3.9305,3.9316,3.9338,3.9364,3.9392,3.9409,3.9436,3.947,3.9478,3.9484,3.9486,3.9487,3.9489,3.9511,3.9515,3.9478,3.9478,3.9478,0,0,3.9126,3.9151,3.9166,3.9208,3.9229,3.9256,3.9258,3.9285,3.9306,3.9319,3.9353,3.9371,3.9402,3.9437,3.9453,3.9451,3.9502,3.9489,3.949,3.9492,3.9514,3.9517,3.952,3.9479,3.9479,3.9479,0,0,3.9141,3.9163,3.9188,3.921,3.9243,3.9262,3.9268,3.9303,3.9316,3.935,3.9362,3.9387,3.9433,3.9455,3.9472,3.9501,3.9508,3.9509,3.9517,3.9539,3.9541,3.9544,3.9556,3.956,3.9512,3.9512,3.9512,0,3.9138,3.9179,3.92,3.9228,3.9247,3.9263,3.929,3.931,3.9349,3.9363,3.936,3.9421,3.9443,3.9484,3.9492,3.9505,3.9513,3.9505,3.9539,3.9542,3.9545,3.9557,3.9561,3.9512,3.9512,3.9512,3.9512,0,3.9175,3.9203,3.9219,3.9259,3.9281,3.9307,3.9333,3.9353,3.9364,3.9383,3.942,3.9447,3.9481,3.9491,3.9502,3.9536,3.9534,3.9535,3.953,3.9548,3.956,3.9564,3.9512,3.9512,3.9512,3.9512,0,0,3.9179,3.9234,3.9239,3.9259,3.9299,3.9321,3.935,3.9385,3.9402,3.9429,3.9455,3.9496,3.9499,3.9518,3.9532,3.9551,3.9575,3.9551,3.9552,3.9555,3.9616,3.9614,3.9619,3.958,3.9581,3.9582,3.9614,0,3.9201,3.9253,3.9275,3.9317,3.9345,3.9363,3.9388,3.9416,3.9435,3.9462,3.9483,3.9512,3.9513,3.9526,3.9545,3.9567,3.9587,3.9566,3.9604,3.9606,3.9596,3.9625,3.9623,3.9651,3.9618,3.9619,3.9619,0,3.9232,3.9262,3.9308,3.9347,3.936,3.9382,3.9418,3.9443,3.9475,3.9488,3.9513,3.9526,3.9559,3.9553,3.9598,3.9583,3.9601,3.9615,3.9617,3.9621,3.9613,3.963,3.966,3.9665,3.9626,3.9625,3.9625,0,3.9232,3.9285,3.932,3.9336,3.9382,3.9398,3.9418,3.9451,3.9471,3.9502,3.9516,3.955,3.9569,3.9595,3.9618,3.9611,3.9662,3.9658,3.9675,3.9674,3.9684,3.9683,3.9718,3.9695,3.9695,3.9695,3.9694,0,3.9254,3.9281,3.9321,3.9342,3.9375,3.94,3.9432,3.9453,3.9483,3.9509,3.9526,3.9551,3.958,3.9609,3.9627,3.9664,3.9671,3.9683,3.9688,3.9682,3.9681,3.9693,3.9692,3.9696,3.9695,3.9695,3.9695,0,3.9259,3.9286,3.9326,3.9368,3.938,3.9402,3.9438,3.946,3.9482,3.9516,3.9525,3.9559,3.9594,3.9621,3.9665,3.9678,3.9717,3.9721,3.9706,3.9709,3.9724,3.9723,3.9769,3.9777,3.9748,3.9748,3.9748,0,3.9271,3.9293,3.9338,3.9358,3.9379,3.941,3.9432,3.9459,3.9482,3.9523,3.9541,3.9578,3.9608,3.9664,3.9693,3.9728,3.9734,3.9748,3.9739,3.9733,3.9735,3.9734,3.9737,3.9748,3.9749,3.9749,3.9749,0,3.9289,3.9303,3.9334,3.9371,3.9398,3.9428,3.9458,3.9474,3.9507,3.9531,3.9569,3.9593,3.9641,3.9678,3.9717,3.9738,3.9749,3.9752,3.9758,3.9752,3.9743,3.9749,3.971,3.975,3.975,3.975,3.975,3.975,3.9298,3.932,3.9357,3.9392,3.9419,3.9448,3.9472,3.9498,3.953,3.9571,3.9586,3.9625,3.966,3.9714,3.9736,3.9768,3.9767,3.9775,3.9778,3.9779,3.978,3.9738,3.9775,3.9775,3.9775,3.9775,3.9775,0,3.9319,3.9344,3.9376,3.942,3.9449,3.9459,3.9494,3.9518,3.9552,3.9584,3.9616,3.966,3.9697,3.973,3.9769,3.9788,3.9794,3.9797,3.9796,3.9801,3.9777,3.9768,3.9791,3.9791,3.9791,3.9791,3.9791,3.9791,3.9332,3.937,3.9389,3.9441,3.9467,3.9506,3.9526,3.9553,3.958,3.9629,3.9661,3.9683,3.9716,3.9758,3.9793,3.9802,3.9816,3.9817,3.9828,3.9804,3.9802,3.98,3.9792,3.982,3.982,3.9849,3.9849,3.985]}]]